This demonstration page uses our WeatherBlox Daily Observations layout. Learn more.

Left ArrowRight Arrow

Hourly Observations for December 29, 2019

Temp ( °F °C ) Dew Point ( °F °C ) Humidity (%) Winds ( mph kmh ) Pressure ( in mb ) Visibility ( mi km ) Precip ( " mm )
12:53 am 00:53 Clear 46 7.8 38 3.3 73 73 Calm 30.11 1020 10 16 0.00 0.00
1:53 am 01:53 Clear 47 8.3 38 3.3 71 71 SSW 3 6 30.11 1020 10 16 0.00 0.00
2:53 am 02:53 Clear 45 7.2 39 3.9 80 80 Calm 30.12 1020 9 14 0.00 0.00
3:53 am 03:53 Clear 44 6.7 39 3.9 83 83 NNE 5 7 30.13 1020 9 14 0.00 0.00
4:53 am 04:53 Partly Cloudy 44 6.7 38 3.3 79 79 Calm 30.12 1020 9 14 0.00 0.00
5:53 am 05:53 Cloudy 45 7.2 38 3.3 77 77 N 5 7 30.13 1020 8 13 0.00 0.00
6:53 am 06:53 Cloudy 44 6.7 38 3.3 79 79 Calm 30.12 1020 8 13 0.00 0.00
7:53 am 07:53 Cloudy 42 5.6 38 3.3 85 85 Calm 30.13 1020 7 11 0.00 0.00
8:53 am 08:53 Mostly Sunny 46 7.8 39 3.9 77 77 N 3 6 30.13 1020 7 11 0.00 0.00
9:53 am 09:53 Partly Cloudy 49 9.4 40 4.4 71 71 Calm 30.14 1021 7 11 0.00 0.00
10:53 am 10:53 Cloudy 50 10 40 4.4 68 68 Calm 30.14 1021 7 11 0.00 0.00
11:53 am 11:53 Cloudy 50 10 40 4.4 68 68 Calm 30.10 1019 7 11 0.00 0.00
12:53 pm 12:53 Cloudy 50 10 39 3.9 66 66 WSW 5 7 30.08 1019 7 11 0.00 0.00
1:51 pm 13:51 Cloudy with Light Rain 48 9 43 6 82 82 Calm 30.08 1019 3 5 0.01 0.25
1:53 pm 13:53 Cloudy with Light Rain 48 8.9 42 5.6 80 80 Calm 30.07 1018 3 5 0.01 0.25
2:53 pm 14:53 Cloudy with Haze 48 8.9 43 6.1 83 83 NE 3 6 30.06 1018 4 6 0.02 0.51
3:53 pm 15:53 Cloudy with Light Rain 47 8.3 44 6.7 90 90 N 6 9 30.07 1018 3 4 0.00 0.00
4:34 pm 16:34 Cloudy with Mist and Fog 47 8.3 43 6.1 86 86 N 7 11 30.08 1019 3 5 0.00 0.00
4:53 pm 16:53 Cloudy with Light Rain 47 8.3 43 6.1 86 86 N 5 7 30.08 1019 5 8 0.01 0.25
5:44 pm 17:44 Cloudy with Mist and Fog 46 7.8 43 6.1 89 89 NNW 3 6 30.09 1019 4 6 0.00 0.00
5:53 pm 17:53 Cloudy with Mist and Fog 46 7.8 43 6.1 89 89 NW 3 6 30.08 1019 4 6 0.00 0.00
6:33 pm 18:33 Cloudy with Mist and Fog 46 7.8 43 6.1 89 89 Calm 30.09 1019 5 8 0.01 0.25
6:40 pm 18:40 Cloudy with Mist and Fog 46 7.8 43 6.1 89 89 Calm 30.09 1019 4 6 0.01 0.25
6:53 pm 18:53 Cloudy with Mist and Fog 46 7.8 43 6.1 89 89 Calm 30.09 1019 4 6 0.01 0.25
7:53 pm 19:53 Mostly Clear with Mist and Fog 43 6.1 41 5 93 93 Calm 30.09 1019 4 6 0.00 0.00
8:53 pm 20:53 Cloudy with Mist and Fog 44 6.7 42 5.6 93 93 NW 3 6 30.10 1019 4 6 0.00 0.00
9:13 pm 21:13 Cloudy with Mist and Fog 43 6.1 42 5.6 97 97 WNW 5 7 30.12 1020 3 4 0.00 0.00
9:29 pm 21:29 Cloudy with Mist and Fog 44 6.7 42 5.6 93 93 NW 3 6 30.11 1020 3 5 0.00 0.00
9:40 pm 21:40 Cloudy with Mist and Fog 44 6.7 42 5.6 93 93 WNW 3 6 30.12 1020 3 4 0.00 0.00
9:48 pm 21:48 Cloudy with Mist and Fog 45 7 43 6 93 93 NW 3 6 30.12 1020 3 5 0.00 0.00
9:53 pm 21:53 Cloudy with Mist and Fog 44 6.7 42 5.6 93 93 NW 3 6 30.11 1020 4 6 0.00 0.00
10:53 pm 22:53 Cloudy with Mist and Fog 45 7.2 42 5.6 90 90 N 3 6 30.12 1020 6 10 0.00 0.00
11:53 pm 23:53 Cloudy with Mist and Fog 43 6.1 41 5 93 93 Calm 30.13 1020 3 4 0.00 0.00

Powered by AerisWeather